Regional Weather Roundup
Issued by NWS

Home | Current Version | Previous Version | Graphics & Text | Print | Product List | Glossary Off
Versions: 1 2 3 4 5 6 7 8 9 10 11 12 13 14 15 16 17 18 19 20 21 22 23 24 25 26 27 28 29 30 31 32 33 34 35 36 37 38 39 40 41 42 43 44 45 46 47 48 49 50

000
ASUS43 KMKX 230710
RWRWI

WISCONSIN REGIONAL WEATHER ROUNDUP
NATIONAL WEATHER SERVICE MILWAUKEE/SULLIVAN WI
100 AM CST FRI FEB 23 2018

NOTE: "FAIR" INDICATES FEW OR NO CLOUDS BELOW 12,000 FEET WITH NO
SIGNIFICANT WEATHER AND/OR OBSTRUCTIONS TO VISIBILITY.

WIZ001-002-006>008-014>016-023>028-230800-
NORTHWEST WISCONSIN

CITY           SKY/WX    TMP DP  RH WIND       PRES   REMARKS
SUPERIOR ARPT  LGT SNOW  24  22  94 E12       30.25F WCI  12
ASHLAND        SNOW      22  20  92 N10       30.25F VSB 1/2 WCI  11
HAYWARD        HVY SNOW  26  23  88 NE3       30.20F VSB 1/4
SIREN          SNOW      26  25  96 E3        30.18F VSB 1/2
CUMBERLAND     SNOW      25  23  93 E5        30.16F VSB 1/2 WCI  19
RICE LAKE      LGT SNOW  26  25  98 E3        30.19F VSB 3/4
CHETEK         LGT SNOW  25  25  97 E3        30.18F
LADYSMITH      LGT SNOW  27  25  94 CALM      30.20F
EAU CLAIRE     LGT SNOW  28  26  92 CALM      30.18S FOG
MENOMONIE      LGT SNOW  27  26  96 NE5       30.18F WCI  22
NEW RICHMOND   LGT SNOW  25  23  90 E3        30.16F
OSCEOLA        SNOW      26  26 100 E5        30.19F VSB 1/2 WCI  21
$$

WIZ003>005-009-010-017-018-230800-
NORTH CENTRAL WISCONSIN

CITY           SKY/WX    TMP DP  RH WIND       PRES   REMARKS
MANITOWISH WTR LGT SNOW  24  24 100 SE7       30.16F WCI  16
ARBOR VITAE    LGT SNOW  25  23  92 SE7       30.16F VSB 1   WCI  17
WOODRUFF       LGT SNOW  25  23  92 SE7       30.16F VSB 1   WCI  17
RHINELANDER    LGT SNOW  25  23  92 SE13      30.17F FOG     WCI  14
EAGLE RIVER    LGT SNOW  24  23  93 SE8       30.18F WCI  16
LAND O LAKES   LGT SNOW  25  22  91 SE10      30.19F WCI  14
PHILLIPS       LGT SNOW  24  23  96 SE3       30.16F
TOMAHAWK       LGT SNOW  25  23  92 SE5       30.17F WCI  19
MEDFORD        MIX PCPN  25  24  94 SE10G20   30.13F WCI  15
MERRILL        MIX PCPN  27  26  97 SE9       30.18F WCI  18
$$

WIZ029-030-035-036-043>047-230800-
CENTRAL WISCONSIN

CITY           SKY/WX    TMP DP  RH WIND       PRES   REMARKS
WAUSAU         FRZ RAIN  28  27  96 SE15G25   30.16F FOG     WCI  16
MOSINEE        MIX PCPN  28  28 100 E10       30.19F WCI  19
MARSHFIELD     CLOUDY    28  27  96 SE16      30.14F FOG     WCI  16
STEVENS POINT  MIX PCPN  27  27 100 E13       30.19F WCI  16
WAUPACA        CLOUDY    31  29  90 E7        30.23F WCI  25
WAUTOMA        LGT SNOW  31  29  92 E9        30.21F FOG     WCI  23
WISC RAPIDS    CLOUDY    29  26  89 SE9       30.18F WCI  20
CAMP DOUGLAS   CLOUDY    30  30  99 SE6       30.16F WCI  24
$$

WIZ011>013-019>022-031-037>040-048>050-230800-
NORTHEAST WISCONSIN

CITY           SKY/WX    TMP DP  RH WIND       PRES   REMARKS
ANTIGO         MIX PCPN  26  25  97 SE16      30.20F WCI  13
SHAWANO        MIX PCPN  32  30  92 E6        30.25F WCI  26
OCONTO         CLOUDY    31  28  88 E5        30.28F WCI  26
STURGEON BAY   RAIN      33  25  72 SE7       30.30F WCI  27
GREEN BAY      FRZ RAIN  33  27  78 SE8       30.27F WCI  26
MANITOWOC      LGT RAIN  33  28  81 SE20      30.28F WCI  21
APPLETON       CLOUDY    32  28  86 SE13      30.22F WCI  22
CLINTONVILLE   MIX PCPN  30  28  92 E8        30.25F WCI  23
OSHKOSH        CLOUDY    33  28  81 SE13      30.23F WCI  24
$$

WIZ032>034-041-042-053>061-230800-
SOUTHWEST WISCONSIN

CITY           SKY/WX    TMP DP  RH WIND       PRES   REMARKS
LA CROSSE      MIX PCPN  34  32  92 SE5       30.13F WCI  30
SPARTA         MIX PCPN  32  31  96 E9        30.15F WCI  24
VIROQUA        CLOUDY    32  32 100 SE10      30.12F WCI  23
BOSCOBEL       MIX PCPN  34  33  96 E5        30.17F FOG     WCI  30
PRAIRIE DU CHI CLOUDY    33  32  94 E9        30.14F FOG     WCI  26
PLATTEVILLE    CLOUDY    34  34 100 SE12      30.14F WCI  25
$$

WIZ056-057-062-063-064-067-068-230800-
SOUTH CENTRAL WISCONSIN

CITY           SKY/WX    TMP DP  RH WIND       PRES   REMARKS
REEDSBURG      CLOUDY    31  31 100 E8        30.17F WCI  24
BARABOO/DELLS  CLOUDY    31  31  98 E7        30.17F WCI  24
LONE ROCK      FOG       33  32  96 E12       30.18F VSB 1   WCI  24
MINERAL POINT  LGT RAIN  34  34 100 SE13      30.14F WCI  25
MADISON        CLOUDY    33  32  96 SE9       30.18F FOG     WCI  25
MIDDLETON      CLOUDY    34  33  97 SE8       30.18F WCI  27
WATERTOWN      CLOUDY    33  33 100 SE10      30.21F FOG     WCI  25
MONROE         FOG       34  32  93 SE9       30.15F VSB 1/2 WCI  26
JANESVILLE     CLOUDY    36  36 100 E8        30.18F FOG     WCI  29
$$

WIZ051-052-058>065-066-070>072-230800-
SOUTHEAST WISCONSIN

CITY           SKY/WX    TMP DP  RH WIND       PRES   REMARKS
MILWAUKEE      LGT RAIN  36  33  89 SE10      30.24F FOG     WCI  28
WAUKESHA       CLOUDY    32  32 100 SE12      30.23F FOG     WCI  23
MILWAUKEE/TIMM CLOUDY    34  30  86 SE7       30.26F HAZE    WCI  28
RACINE         LGT RAIN  36  35  96 SE14      30.27F FOG     WCI  27
BURLINGTON     CLOUDY    36  34  93 SE9       30.22F FOG     WCI  29
KENOSHA        CLOUDY    37  34  89 SE13G24   30.24F FOG     WCI  29
FOND DU LAC    LGT RAIN  34  27  75 SE15      30.23F WCI  24
SHEBOYGAN      CLOUDY    33  30  88 SE9       30.27F WCI  25
WEST BEND      CLOUDY    32  32 100 SE9G16    30.24F FOG     WCI  24
JUNEAU         CLOUDY    32  30  92 E14       30.22F WCI  22
$$

LSZ147-162-230800-
LAKE SUPERIOR

STATION/POSITION TIME  TEMP    WIND        PRES    WAVE
                       AIR SEA DIR/SP/G            HT/PER
                 (UTC) (F)     (DEG/KT/KT) (MB)    (FT/S)
DEVILS ISLAND    0700   26      40/ 11/ 12 1026.0F
SAXON HARBOR     0640   26      40/  4/  5 1024.0F
$$

LMZ867-665-643>646-230800-
LAKE MICHIGAN

STATION/POSITION TIME  TEMP    WIND        PRES    WAVE
                       AIR SEA DIR/SP/G            HT/PER
                 (UTC) (F)     (DEG/KT/KT) (MB)    (FT/S)
NORTHPORT PIER   0701   33                 1025.1
KEWAUNEE LAKESHO 0648   35     140/ 16/ 20 1025.0F
SHEBOYGAN LAKESH 0700   34     140/ 17/ 19 1025.8F
PORT WASHINGTON  0630   36     140/ 10/ 11 1026.8F
MILWAUKEE LAKESH 0650   34     130/  7/  8   N/A
KENOSHA   LAKESH 0700   35     140/ 10/ 12 1024.4
$$

TC  - TEMPERATURE IN CELSIUS
VSB - VISIBILITY IN STATUTE MILES
WCI - WIND CHILL INDEX
HX  - HEAT INDEX





USA.gov is the U.S. government's official web portal to all federal, state and local government web resources and services.